Location: Gellin
(53.4498°N, 14.3207°E)
Time: 23:26:54
(UTC+00:00)

Okean-O - Pass Details

Date: 03 March 2021
Orbit: 639 x 640 km, 98.2° (Epoch: 12 April)

Event Time Altitude Azimuth Distance (km) Brightness Sun altitude
Rises 18:23:16 0° 189° (S) 2,936 6.0 -15.4°
Reaches altitude 10° 18:25:39 10° 199° (SSW) 2,032 5.3 -15.8°
Maximum altitude 18:29:39 33° 264° (W) 1,083 4.5 -16.4°
Drops below altitude 10° 18:33:42 10° 329° (NNW) 2,046 5.8 -16.9°
Sets 18:36:06 0° 339° (NNW) 2,961 6.5 -17.3°
